Weather History for Washington, MO

Change the Weather History Date:

Saturday, November 24, 2012

  Actual Average (KSTL) Record (KSTL)
Temperature  
Mean Temperature 30 °F 43 °F  
Max Temperature 37 °F 51 °F 74 °F (1966)
Min Temperature 23 °F 34 °F 3 °F (1950)
Degree Days  
Heating Degree Days 35 22  
Month to date heating degree days 405  
Since 1 July heating degree days 681  
Cooling Degree Days 0 0  
Month to date cooling degree days 0  
Year to date cooling degree days 1642  
Moisture  
Dew Point 18 °F    
Average Humidity 61    
Maximum Humidity 80    
Minimum Humidity 45    
Precipitation  
Precipitation 0.00 in 0.14 in 3.08 in (2010)
Month to date precipitation 3.13  
Year to date precipitation 37.34  
Snow  
Snow - 0.00 in 1.40 in (2004)
Month to date snowfall 0.4  
Since 1 July snowfall 0.4  
Since 1 September snowfall 0.4  
Snow Depth -    
Sea Level Pressure  
Sea Level Pressure 30.24 in    
Wind  
Wind Speed 3 mph ()    
Max Wind Speed 9 mph    
Max Gust Speed -    
Visibility 10.0 miles    
Events      
T = Trace of Precipitation, MM = Missing Value Source: Averaged Metar Reports

Daily Weather History Graph

Daily Weather History Graph

Search for Another Location

Airport:

Trip Planner

Search our weather history database for the weather conditions in past years. The results will help you decide how hot, cold, wet, or windy it might be!

Date:

Astronomy

Nov. 24, 2012 Rise Set
Actual Time 6:56 AM CST 4:45 PM CST
Civil Twilight 6:27 AM CST 5:14 PM CST
Nautical Twilight 5:54 AM CST 5:46 PM CST
Astronomical Twilight 5:22 AM CST 6:18 PM CST
Moon 2:28 PM CST (11/24) 3:15 AM CST (11/24)
Length of Visible Light 10h 46m
Length of Day
9h 49m
Waxing Gibbous, 87% of the Moon is Illuminated
Nov 24
Waxing Gibbous
Nov 28
Full
Dec 6
Last Quarter
Dec 13
New
Dec 19
First Quarter

Hourly Weather History & Observations

Time (CST) Temp. Windchill Dew Point Humidity Pressure Visibility Wind Dir Wind Speed Gust Speed Precip Events Conditions
12:15 AM 28.4 °F 23.3 °F 17.6 °F 64% 30.36 in 10.0 mi NNW 4.6 mph - N/A   Clear
12:35 AM 26.6 °F 21.2 °F 17.6 °F 69% 30.36 in 10.0 mi NNW 4.6 mph - N/A   Clear
12:55 AM 26.6 °F 21.2 °F 17.6 °F 69% 30.36 in 10.0 mi NNW 4.6 mph - N/A   Clear
1:15 AM 26.6 °F 21.2 °F 17.6 °F 69% 30.35 in 10.0 mi NNW 4.6 mph - N/A   Clear
1:35 AM 26.6 °F 21.2 °F 17.6 °F 69% 30.35 in 10.0 mi NNW 4.6 mph - N/A   Clear
1:55 AM 26.6 °F 21.2 °F 17.6 °F 69% 30.35 in 10.0 mi NNW 4.6 mph - N/A   Clear
2:15 AM 26.6 °F 21.2 °F 17.6 °F 69% 30.36 in 10.0 mi NNW 4.6 mph - N/A   Clear
2:35 AM 26.6 °F - 17.6 °F 69% 30.36 in 10.0 mi Calm Calm - N/A   Clear
2:55 AM 24.8 °F - 17.6 °F 74% 30.36 in 10.0 mi Calm Calm - N/A   Clear
3:15 AM 24.8 °F - 17.6 °F 74% 30.35 in 10.0 mi Calm Calm - N/A   Clear
3:35 AM 24.8 °F - 17.6 °F 74% 30.35 in 10.0 mi Calm Calm - N/A   Clear
3:55 AM 24.8 °F - 17.6 °F 74% 30.35 in 10.0 mi Calm Calm - N/A   Clear
4:15 AM 24.8 °F - 17.6 °F 74% 30.35 in 10.0 mi Calm Calm - N/A   Clear
4:35 AM 24.8 °F - 17.6 °F 74% 30.35 in 10.0 mi Calm Calm - N/A   Clear
4:55 AM 23.0 °F - 17.6 °F 80% 30.34 in 10.0 mi Calm Calm - N/A   Clear
5:15 AM 23.0 °F - 17.6 °F 80% 30.35 in 10.0 mi Calm Calm - N/A   Clear
5:35 AM 23.0 °F - 17.6 °F 80% 30.35 in 10.0 mi Calm Calm - N/A   Clear
5:55 AM 23.0 °F - 17.6 °F 80% 30.35 in 10.0 mi Calm Calm - N/A   Clear
6:15 AM 23.0 °F - 17.6 °F 80% 30.35 in 10.0 mi Calm Calm - N/A   Clear
6:35 AM 23.0 °F - 17.6 °F 80% 30.35 in 10.0 mi Calm Calm - N/A   Clear
6:55 AM 23.0 °F - 17.6 °F 80% 30.36 in 10.0 mi Calm Calm - N/A   Clear
7:15 AM 23.0 °F - 17.6 °F 80% 30.35 in 10.0 mi Calm Calm - N/A   Clear
7:35 AM 23.0 °F - 17.6 °F 80% 30.35 in 10.0 mi Calm Calm - N/A   Clear
7:55 AM 24.8 °F 16.9 °F 17.6 °F 74% 30.35 in 10.0 mi NNW 6.9 mph - N/A   Clear
8:15 AM 24.8 °F 17.9 °F 17.6 °F 74% 30.36 in 10.0 mi NW 5.8 mph - N/A   Clear
8:35 AM 26.6 °F 18.2 °F 17.6 °F 69% 30.36 in 10.0 mi NW 8.1 mph - N/A   Clear
8:55 AM 26.6 °F 17.5 °F 19.4 °F 74% 30.36 in 10.0 mi NW 9.2 mph - N/A   Clear
9:15 AM 26.6 °F - 19.4 °F 74% 30.36 in 10.0 mi Calm Calm - N/A   Clear
9:35 AM 28.4 °F 20.4 °F 17.6 °F 64% 30.36 in 10.0 mi WNW 8.1 mph - N/A   Clear
9:55 AM 28.4 °F 21.2 °F 17.6 °F 64% 30.36 in 10.0 mi WNW 6.9 mph - N/A   Clear
10:15 AM 28.4 °F - 17.6 °F 64% 30.35 in 10.0 mi Calm Calm - N/A   Clear
10:35 AM 28.4 °F 24.6 °F 17.6 °F 64% 30.35 in 10.0 mi NW 3.5 mph - N/A   Clear
10:55 AM 30.2 °F 22.6 °F 17.6 °F 60% 30.34 in 10.0 mi WNW 8.1 mph - N/A   Clear
11:15 AM 32.0 °F 26.4 °F 15.8 °F 51% 30.33 in 10.0 mi WNW 5.8 mph - N/A   Clear
11:35 AM 32.0 °F 26.4 °F 15.8 °F 51% 30.32 in 10.0 mi WNW 5.8 mph - N/A   Clear
11:55 AM 32.0 °F - 17.6 °F 55% 30.30 in 10.0 mi Calm Calm - N/A   Clear
12:15 PM 32.0 °F - 17.6 °F 55% 30.28 in 10.0 mi Calm Calm - N/A   Clear
12:55 PM 32.0 °F - 17.6 °F 55% 30.26 in 10.0 mi Calm Calm - N/A   Clear
1:15 PM 33.8 °F 30.8 °F 17.6 °F 52% 30.25 in 10.0 mi NNW 3.5 mph - N/A   Clear
1:35 PM 35.6 °F - 17.6 °F 48% 30.24 in 10.0 mi Calm Calm - N/A   Clear
1:55 PM 35.6 °F - 17.6 °F 48% 30.23 in 10.0 mi Calm Calm - N/A   Clear
2:15 PM 35.6 °F - 17.6 °F 48% 30.22 in 10.0 mi Calm Calm - N/A   Clear
2:55 PM 37.4 °F 33.8 °F 17.6 °F 45% 30.20 in 10.0 mi SSW 4.6 mph - N/A   Clear
3:15 PM 37.4 °F 34.9 °F 17.6 °F 45% 30.19 in 10.0 mi South 3.5 mph - N/A   Clear
3:35 PM 37.4 °F - 17.6 °F 45% 30.19 in 10.0 mi Calm Calm - N/A   Clear
3:55 PM 37.4 °F - 17.6 °F 45% 30.18 in 10.0 mi Calm Calm - N/A   Clear
4:15 PM 37.4 °F 33.8 °F 19.4 °F 48% 30.17 in 10.0 mi SSE 4.6 mph - N/A   Clear
4:35 PM 35.6 °F 30.7 °F 19.4 °F 52% 30.16 in 10.0 mi SSE 5.8 mph - N/A   Clear
4:55 PM 35.6 °F 31.7 °F 19.4 °F 52% 30.15 in 10.0 mi SE 4.6 mph - N/A   Clear
5:15 PM 35.6 °F - 19.4 °F 52% 30.13 in 10.0 mi Calm Calm - N/A   Clear
5:35 PM 35.6 °F 30.7 °F 19.4 °F 52% 30.13 in 10.0 mi SE 5.8 mph - N/A   Clear
5:55 PM 35.6 °F 30.7 °F 19.4 °F 52% 30.12 in 10.0 mi SE 5.8 mph - N/A   Clear
6:15 PM 35.6 °F 30.7 °F 17.6 °F 48% 30.11 in 10.0 mi SE 5.8 mph - N/A   Clear
6:35 PM 35.6 °F 29.9 °F 17.6 °F 48% 30.09 in 10.0 mi SE 6.9 mph - N/A   Clear
6:55 PM 35.6 °F 30.7 °F 17.6 °F 48% 30.09 in 10.0 mi ESE 5.8 mph - N/A   Clear
7:15 PM 33.8 °F 28.6 °F 17.6 °F 52% 30.09 in 10.0 mi SE 5.8 mph - N/A   Clear
7:35 PM 35.6 °F 29.9 °F 17.6 °F 48% 30.07 in 10.0 mi SE 6.9 mph - N/A   Clear
7:55 PM 35.6 °F 29.2 °F 17.6 °F 48% 30.07 in 10.0 mi SE 8.1 mph - N/A   Clear
8:15 PM 35.6 °F 29.9 °F 17.6 °F 48% 30.06 in 10.0 mi SE 6.9 mph - N/A   Clear
8:35 PM 35.6 °F 29.9 °F 17.6 °F 48% 30.04 in 10.0 mi SE 6.9 mph - N/A   Clear
8:55 PM 35.6 °F 29.2 °F 17.6 °F 48% 30.04 in 10.0 mi SE 8.1 mph - N/A   Clear
9:15 PM 35.6 °F 29.9 °F 19.4 °F 52% 30.03 in 10.0 mi SE 6.9 mph - N/A   Clear
9:35 PM 35.6 °F 29.9 °F 19.4 °F 52% 30.02 in 10.0 mi SE 6.9 mph - N/A   Clear
9:55 PM 33.8 °F - 19.4 °F 56% 30.02 in 10.0 mi Calm Calm - N/A   Clear
10:15 PM 35.6 °F - 19.4 °F 52% 30.02 in 10.0 mi Calm Calm - N/A   Clear
10:35 PM 35.6 °F - 19.4 °F 52% 30.02 in 10.0 mi Calm Calm - N/A   Clear
10:55 PM 35.6 °F - 19.4 °F 52% 30.02 in 10.0 mi Calm Calm - N/A   Clear
11:15 PM 35.6 °F - 19.4 °F 52% 30.01 in 10.0 mi Calm Calm - N/A   Clear
11:35 PM 35.6 °F - 19.4 °F 52% 30.01 in 10.0 mi Calm Calm - N/A   Clear
11:55 PM 35.6 °F - 19.4 °F 52% 30.01 in 10.0 mi Calm Calm - N/A   Clear